PBO Station Position Time Series. Reference Frame : NAM14
Format Version,1.1.0
4-character ID,P454
Station name,CouleeDam_WA2005
Begin Date, 2005-05-27
End Date, 2019-10-07
Release Date, 2019-10-08
Reference position, 47.9538157436 North Latitude, -118.9925788139 East Longitude, 478.95426 meters elevation,
Date, North (mm), East (mm), Vertical (mm), North Std. Deviation (mm), East Std. Deviation (mm),              Vertical Std. Deviation (mm), Quality,
2005-05-27,0.00, 0.00, 0.00, 2.30, 1.58, 7.20, repro,
2005-05-28,0.87, -1.01, -1.42, 2.29, 1.58, 7.18, repro,
2005-05-29,3.20, 0.36, 1.29, 2.28, 1.58, 7.15, repro,
2005-05-30,1.55, -1.19, 1.35, 2.29, 1.59, 7.19, repro,
2005-05-31,1.05, -1.84, -1.72, 2.30, 1.58, 7.20, repro,
2005-06-01,-0.50, -0.60, 3.01, 2.29, 1.54, 7.03, repro,
2005-06-02,-0.63, -1.98, 2.95, 2.28, 1.55, 7.04, repro,
2005-06-03,1.88, -1.78, 1.12, 2.26, 1.54, 6.96, repro,
2005-06-04,0.53, -0.61, 4.56, 2.27, 1.55, 6.98, repro,
2005-06-05,1.39, -1.62, 5.64, 2.27, 1.54, 6.96, repro,
2005-06-06,0.65, -0.56, -1.80, 2.35, 1.58, 7.16, repro,
2005-06-07,0.18, -0.67, 2.13, 2.29, 1.55, 7.02, repro,
2005-06-08,0.17, -0.59, 2.14, 2.26, 1.54, 6.97, repro,
2005-06-09,1.71, -0.73, 2.76, 2.27, 1.55, 7.03, repro,
2005-06-10,-0.48, -0.88, 4.41, 2.33, 1.60, 7.18, repro,
2005-06-11,0.65, -1.93, 4.41, 2.33, 1.58, 7.18, repro,
2005-06-12,-0.10, -0.38, 1.50, 2.37, 1.61, 7.28, repro,
2005-06-13,0.36, -1.37, 1.29, 2.34, 1.61, 7.24, repro,
2005-06-14,-0.99, -0.17, -2.28, 2.31, 1.60, 7.16, repro,
2005-06-15,2.82, -1.20, 1.65, 2.27, 1.55, 6.98, repro,
2005-06-16,1.86, -1.56, 4.30, 2.34, 1.56, 7.06, repro,
2005-06-17,0.99, -0.66, 3.91, 2.38, 1.57, 7.11, repro,
2005-06-18,1.18, -2.23, 1.56, 2.32, 1.59, 7.16, repro,
2005-06-19,0.20, -1.02, -3.77, 2.28, 1.56, 7.00, repro,
2005-06-20,1.32, 1.15, 0.73, 2.26, 1.55, 7.00, repro,
2005-06-21,0.51, -0.94, -6.12, 2.29, 1.56, 7.11, repro,
2005-06-22,-1.29, -2.86, -1.52, 2.29, 1.55, 7.08, repro,
2005-06-23,-0.29, -0.15, -6.81, 2.30, 1.55, 7.04, repro,
2005-06-24,0.14, -1.39, -2.25, 2.28, 1.55, 7.04, repro,
2005-06-25,-0.25, -0.58, 1.82, 2.28, 1.56, 7.02, repro,
2005-06-26,0.19, -1.59, 5.17, 2.32, 1.58, 7.10, repro,
2005-06-27,0.68, -1.92, 0.54, 2.30, 1.55, 7.01, repro,
2005-06-28,2.10, -1.58, -1.17, 2.35, 1.57, 7.14, repro,
2005-06-29,0.78, -2.23, -2.26, 2.25, 1.53, 6.93, repro,
2005-06-30,1.19, -2.76, 4.05, 2.27, 1.55, 6.99, repro,
2005-07-01,-0.59, -2.11, 7.91, 2.28, 1.55, 7.04, repro,
2005-07-02,-2.92, -3.05, 9.57, 2.26, 1.53, 6.93, repro,
2005-07-03,-0.89, -1.52, 1.78, 2.27, 1.53, 6.96, repro,
2005-07-04,-0.66, -1.81, 0.04, 2.27, 1.53, 6.97, repro,
2005-07-05,-1.93, -0.97, -4.55, 2.30, 1.57, 7.14, repro,
2005-07-06,-1.62, -1.83, 9.52, 2.27, 1.55, 7.01, repro,
2005-07-07,-1.52, -2.23, -0.53, 2.42, 1.62, 7.31, repro,
2005-07-08,-0.77, -2.54, 9.60, 2.32, 1.60, 7.27, repro,
2005-07-09,1.86, -3.77, 6.58, 2.37, 1.65, 7.49, repro,
2005-07-10,-0.70, -1.55, 7.16, 2.49, 1.76, 7.95, repro,
2005-07-11,4.30, -2.61, 5.58, 3.38, 2.54, 11.23, repro,
2005-07-29,-11.73, 3.52, 22.03, 10.71, 7.95, 30.46, repro,
2005-07-30,0.31, -1.04, 4.42, 2.31, 1.60, 7.23, repro,
2005-10-27,0.85, 0.42, 8.90, 4.58, 3.13, 14.02, repro,
2005-10-28,0.82, -0.11, 12.97, 2.28, 1.55, 7.04, repro,
2005-10-29,2.33, -0.33, 10.27, 2.33, 1.59, 7.26, repro,
2005-10-30,1.22, -0.45, 2.75, 2.27, 1.55, 7.05, repro,
2005-10-31,0.96, 0.35, 9.37, 2.45, 1.69, 7.60, repro,
2005-11-01,2.13, -0.99, 6.98, 2.49, 1.73, 7.74, repro,
2005-11-02,-0.02, -1.07, 5.88, 2.46, 1.77, 7.82, repro,
2005-11-03,0.90, -1.30, 12.53, 2.37, 1.65, 7.33, repro,
2005-11-04,1.59, -1.45, 14.19, 2.41, 1.70, 7.60, repro,
2005-11-05,0.76, -0.55, 5.21, 2.45, 1.75, 7.67, repro,
2005-11-06,0.08, -0.00, 10.24, 2.45, 1.72, 7.52, repro,
2005-11-07,1.20, -0.42, 2.70, 2.45, 1.74, 7.65, repro,
2005-11-08,0.26, 0.15, 0.99, 2.41, 1.72, 7.60, repro,
2005-11-09,0.80, -1.49, 0.83, 2.46, 1.76, 7.77, repro,
2005-11-10,-0.54, 0.44, 8.16, 2.60, 1.84, 8.12, repro,
2005-11-11,-0.18, -0.92, 7.65, 2.44, 1.68, 7.58, repro,
2005-11-12,-0.34, 0.02, 7.60, 2.29, 1.60, 7.04, repro,
2005-11-13,0.45, 0.35, 6.18, 2.54, 1.81, 7.73, repro,
2005-11-14,0.42, -2.38, -2.86, 2.32, 1.60, 7.17, repro,
2005-11-15,1.24, -0.47, -2.86, 2.28, 1.55, 7.11, repro,
2005-11-16,0.22, -0.64, -7.59, 2.31, 1.60, 7.25, repro,
2005-11-17,0.26, -0.04, -5.45, 2.27, 1.55, 7.03, repro,
2005-11-18,0.11, -0.58, -3.54, 2.27, 1.55, 7.05, repro,
2005-11-19,-0.04, -0.69, -0.35, 2.27, 1.56, 7.07, repro,
2005-11-20,1.02, -0.59, -2.88, 2.31, 1.58, 7.26, repro,
2005-11-21,0.00, 0.28, -1.03, 2.44, 1.64, 7.54, repro,
2005-11-22,0.79, 0.66, 0.53, 2.37, 1.66, 7.49, repro,
2005-11-23,0.94, -0.49, 2.30, 2.35, 1.64, 7.42, repro,
2005-11-24,-0.56, -0.69, 2.26, 2.32, 1.60, 7.23, repro,
2005-11-25,0.52, -0.76, 6.47, 2.33, 1.59, 7.25, repro,
2005-11-26,0.67, -1.71, 9.04, 2.46, 1.67, 7.68, repro,
2005-11-27,0.50, -0.78, 4.32, 2.29, 1.57, 7.16, repro,
2005-11-28,1.26, -0.31, 1.12, 2.33, 1.62, 7.34, repro,
2005-11-29,1.32, -0.81, 5.00, 2.36, 1.61, 7.34, repro,
2005-11-30,1.21, -0.85, 0.09, 2.31, 1.57, 7.15, repro,
2005-12-01,1.29, -0.79, 4.53, 2.29, 1.56, 7.13, repro,
2005-12-02,1.37, -0.14, 4.36, 2.27, 1.56, 7.11, repro,
2005-12-03,0.81, -0.28, 7.25, 2.29, 1.57, 7.14, repro,
2005-12-04,1.73, -0.24, -0.48, 2.31, 1.58, 7.19, repro,
2005-12-05,1.40, -0.27, -4.08, 2.30, 1.58, 7.14, repro,
2005-12-06,1.19, -0.51, -4.85, 2.27, 1.53, 7.00, repro,
2005-12-07,-0.07, -0.00, -0.72, 2.32, 1.60, 7.28, repro,
2005-12-08,-0.40, -0.41, 3.29, 2.32, 1.61, 7.30, repro,
2005-12-09,-0.54, -0.53, 1.22, 2.31, 1.58, 7.18, repro,
2005-12-10,0.05, -0.23, -0.94, 2.35, 1.61, 7.34, repro,
2005-12-11,-0.24, 0.06, 1.00, 2.29, 1.56, 7.10, repro,
2005-12-12,0.23, -0.24, -0.80, 2.29, 1.56, 7.10, repro,
2005-12-13,0.70, -1.32, 0.65, 2.30, 1.57, 7.19, repro,
2005-12-14,-0.06, -0.78, -6.07, 2.30, 1.58, 7.18, repro,
2005-12-15,0.63, -0.14, -6.55, 2.35, 1.60, 7.29, repro,
2005-12-16,0.02, 0.40, -0.79, 2.28, 1.54, 7.06, repro,
2005-12-17,-0.01, 0.21, -1.71, 2.35, 1.61, 7.24, repro,
2005-12-18,0.58, -0.85, -4.86, 2.38, 1.69, 7.51, repro,
2005-12-19,-0.53, -1.26, -3.26, 2.41, 1.68, 7.43, repro,
2005-12-20,-0.24, -0.56, -4.80, 2.40, 1.70, 7.53, repro,
2005-12-21,-1.39, -1.41, -6.17, 2.34, 1.64, 7.27, repro,
2005-12-22,0.22, -0.05, 6.55, 2.33, 1.64, 7.26, repro,
2005-12-23,0.24, -1.18, 0.81, 2.40, 1.65, 7.37, repro,
2005-12-24,-0.74, -0.33, -2.49, 2.55, 1.75, 8.03, repro,
2005-12-25,1.04, 0.16, 5.41, 2.37, 1.65, 7.36, repro,
2005-12-26,0.83, -0.32, 5.57, 2.36, 1.63, 7.29, repro,
2005-12-27,1.66, 1.56, -1.22, 3.59, 2.27, 10.16, repro,
2006-01-01,-0.18, -0.16, 10.00, 5.02, 3.74, 20.55, repro,
2006-01-02,-2.10, -1.40, 10.59, 6.36, 4.58, 19.25, repro,
2006-01-04,1.68, -0.09, 2.39, 6.95, 5.31, 24.99, repro,
2006-01-05,0.30, 1.02, -14.31, 3.67, 2.37, 10.52, repro,
2006-01-08,2.30, -0.99, -0.06, 4.08, 3.03, 14.92, repro,
2006-01-09,-1.08, -0.87, -0.36, 2.42, 1.70, 7.68, repro,
2006-01-10,-0.84, 0.09, 2.08, 2.42, 1.71, 7.70, repro,
2006-01-11,-0.85, 0.62, 10.51, 2.44, 1.73, 7.79, repro,
2006-01-12,-0.02, 0.03, -2.68, 2.40, 1.71, 7.44, repro,
2006-01-13,0.51, 0.85, 1.85, 2.57, 1.76, 8.31, repro,
2006-01-14,0.76, 0.39, -0.17, 2.33, 1.61, 7.21, repro,
2006-01-15,1.16, -0.26, -2.74, 2.86, 1.94, 9.05, repro,
2006-01-16,0.76, -0.20, -6.28, 2.41, 1.74, 7.59, repro,
2006-01-17,-0.03, 0.20, -0.89, 2.45, 1.74, 7.64, repro,
2006-01-18,0.19, -1.06, 6.29, 2.32, 1.58, 7.16, repro,
2006-01-19,0.13, -0.64, -2.01, 2.33, 1.58, 7.20, repro,
2006-01-20,0.98, 0.07, -4.66, 3.32, 2.23, 10.20, repro,
2006-01-21,0.15, -0.21, -5.86, 2.31, 1.59, 7.13, repro,
2006-01-22,1.65, 0.09, -8.72, 4.67, 3.08, 13.25, repro,
2006-01-24,-0.05, 0.75, 1.13, 4.11, 2.92, 14.68, repro,
2006-01-25,0.11, -0.94, -6.18, 2.24, 1.53, 6.92, repro,
2006-01-26,0.59, -0.58, -0.67, 2.23, 1.52, 6.87, repro,
2006-01-27,-0.16, -0.33, -2.30, 2.22, 1.51, 6.83, repro,
2006-01-28,2.37, 0.64, -2.68, 2.23, 1.52, 6.92, repro,
2006-01-29,0.05, -0.36, -1.98, 2.25, 1.53, 6.98, repro,
2006-01-30,-1.79, 1.72, 1.24, 2.23, 1.52, 6.93, repro,
2006-01-31,-0.82, -0.30, -1.80, 2.24, 1.53, 6.97, repro,
2006-02-01,0.95, 0.07, 9.95, 2.22, 1.52, 6.90, repro,
2006-02-02,0.69, -1.21, 0.03, 2.23, 1.52, 6.91, repro,
2006-02-03,-0.79, -0.92, -0.47, 2.23, 1.51, 6.94, repro,
2006-02-04,-2.10, -0.27, -1.68, 2.25, 1.52, 6.99, repro,
2006-02-05,-0.12, -1.20, -4.82, 2.25, 1.52, 7.02, repro,
2006-02-06,-0.67, 0.35, -11.31, 2.24, 1.53, 7.02, repro,
2006-02-07,-0.14, -0.19, -12.91, 2.24, 1.51, 6.92, repro,
2006-02-08,-0.51, 0.07, -12.04, 2.23, 1.51, 6.93, repro,
2006-02-09,0.32, -0.63, -14.23, 2.31, 1.53, 7.03, repro,
2006-02-10,0.69, -1.32, -16.82, 2.39, 1.56, 7.15, repro,
2006-02-11,0.21, -0.76, -16.28, 2.26, 1.53, 7.08, repro,
2006-02-12,0.30, -0.29, -12.53, 2.25, 1.51, 6.99, repro,
2006-02-13,-0.07, -0.99, -10.60, 2.25, 1.51, 6.97, repro,
2006-02-14,0.55, -0.98, -2.04, 2.24, 1.51, 6.99, repro,
2006-02-15,0.36, -1.42, -5.28, 2.25, 1.52, 7.00, repro,
2006-02-16,0.78, -0.87, -7.06, 2.24, 1.52, 6.97, repro,
2006-02-17,1.36, 0.06, -12.70, 2.26, 1.52, 7.02, repro,
2006-02-18,-0.43, -0.67, -12.17, 2.26, 1.52, 7.01, repro,
2006-02-19,0.46, 0.05, -5.13, 2.26, 1.53, 7.00, repro,
2006-02-20,-0.22, -1.22, -0.52, 2.25, 1.53, 6.98, repro,
2006-02-21,0.36, -1.27, -0.00, 2.26, 1.52, 6.97, repro,
2006-02-22,0.77, -2.54, 1.62, 2.24, 1.52, 6.95, repro,
2006-02-23,0.69, 0.04, -1.31, 2.25, 1.53, 7.01, repro,
2006-02-24,1.64, -1.53, -8.40, 2.25, 1.52, 6.95, repro,
2006-02-25,1.08, -0.82, -9.38, 2.24, 1.52, 6.96, repro,
2006-02-26,1.46, -0.49, -3.05, 2.24, 1.52, 6.96, repro,
2006-02-27,1.28, -0.68, 4.53, 2.23, 1.52, 6.92, repro,
2006-02-28,-0.11, -1.70, 6.11, 2.28, 1.54, 7.04, repro,
2006-03-01,1.64, -0.59, -1.62, 2.33, 1.58, 7.25, repro,
2006-03-02,0.84, -1.69, 1.10, 2.25, 1.53, 7.01, repro,
2006-03-03,0.87, -0.80, -1.73, 2.32, 1.54, 7.14, repro,
2006-03-04,1.41, -0.98, -3.20, 2.23, 1.52, 6.92, repro,
2006-03-05,0.97, -0.53, -3.92, 2.23, 1.53, 6.95, repro,
2006-03-06,0.69, -1.00, -4.52, 2.23, 1.53, 6.96, repro,
2006-03-07,0.18, -1.04, 0.33, 2.23, 1.53, 6.95, repro,
2006-03-08,1.46, -1.49, 2.30, 2.22, 1.54, 6.97, repro,
2006-03-09,-0.16, -1.32, 10.86, 2.23, 1.53, 6.96, repro,
2006-03-10,1.32, -2.16, 4.55, 2.24, 1.53, 6.92, repro,
2006-03-11,1.06, -1.54, 1.41, 2.26, 1.55, 7.04, repro,
2006-03-12,1.54, -0.66, -1.10, 2.26, 1.55, 7.08, repro,
2006-03-13,-0.10, -0.98, -2.72, 2.26, 1.54, 7.09, repro,
2006-03-14,0.66, -1.00, 0.26, 2.28, 1.56, 7.16, repro,
2006-03-15,0.83, -0.42, -3.40, 2.26, 1.55, 7.08, repro,
2006-03-16,3.20, -1.01, -7.14, 2.34, 1.58, 7.31, repro,
2006-03-17,0.31, -0.47, -9.78, 2.36, 1.60, 7.46, repro,
2006-03-18,1.22, -1.20, -5.77, 2.26, 1.56, 7.12, repro,
2006-03-19,1.69, -1.27, -6.24, 2.28, 1.56, 7.15, repro,
2006-03-20,1.05, -0.78, -4.09, 2.28, 1.56, 7.18, repro,
2006-03-21,0.93, -1.04, -2.12, 2.28, 1.56, 7.14, repro,
2006-03-22,1.15, -1.46, -11.02, 2.28, 1.57, 7.17, repro,
2006-03-23,0.95, -0.47, -9.94, 2.32, 1.59, 7.24, repro,
2006-03-24,1.37, -0.46, 1.27, 2.31, 1.59, 7.21, repro,
2006-03-25,-0.05, -0.61, 3.51, 2.31, 1.58, 7.12, repro,
2006-03-26,-1.41, -1.83, 0.24, 2.32, 1.59, 7.20, repro,
2006-03-27,-0.35, -1.20, -2.75, 2.34, 1.59, 7.20, repro,
2006-03-28,0.73, -1.45, -1.28, 2.26, 1.56, 7.08, repro,
2006-03-29,0.72, -1.94, 1.18, 2.20, 1.54, 6.96, repro,
2006-03-30,0.84, -0.25, -0.59, 2.19, 1.53, 6.90, repro,
2006-03-31,-0.13, -2.28, -2.23, 2.21, 1.54, 7.00, repro,
2006-04-01,0.61, -2.18, -2.68, 2.21, 1.54, 6.96, repro,
2006-04-02,-0.09, -1.47, -6.17, 2.22, 1.55, 7.05, repro,
2006-04-03,-0.26, -1.51, -8.49, 2.19, 1.55, 6.99, repro,
2006-04-04,0.30, -1.31, -0.37, 2.20, 1.54, 6.96, repro,
2006-04-05,0.23, -1.84, 2.05, 2.19, 1.53, 6.91, repro,
2006-04-06,-1.02, -2.07, 0.40, 2.22, 1.57, 7.12, repro,
2006-04-07,0.46, -1.22, -1.96, 2.30, 1.58, 7.27, repro,
2006-04-08,0.69, -1.48, -3.02, 2.35, 1.60, 7.40, repro,
2006-04-09,0.28, -1.67, -1.88, 2.21, 1.54, 7.00, repro,
2006-04-10,0.86, -1.44, -1.68, 2.20, 1.53, 6.96, repro,
2006-04-11,0.66, -1.46, 4.78, 2.26, 1.56, 7.17, repro,
2006-04-12,-0.25, -0.71, -3.58, 2.26, 1.56, 7.19, repro,
2006-04-13,-0.85, -2.08, 2.02, 2.21, 1.54, 7.03, repro,
2006-04-14,-1.71, -1.51, 6.72, 2.21, 1.55, 7.06, repro,
2006-04-15,0.63, -0.97, 13.76, 2.26, 1.57, 7.17, repro,
2006-04-16,1.98, -0.90, 4.37, 2.19, 1.53, 6.95, repro,
2006-04-17,-0.19, -1.91, 3.14, 2.18, 1.53, 6.95, repro,
2006-04-18,0.70, -1.60, -2.87, 2.20, 1.53, 6.97, repro,
2006-04-19,1.14, -0.77, -5.49, 2.21, 1.54, 7.01, repro,
2006-04-20,1.70, -1.43, -0.02, 2.25, 1.57, 7.15, repro,
2006-04-21,0.57, -2.22, 0.82, 2.19, 1.52, 6.93, repro,
2006-04-22,2.05, -1.32, -0.81, 2.19, 1.53, 6.96, repro,
2006-04-23,1.67, -1.18, -0.14, 2.23, 1.58, 7.14, repro,
2006-04-24,1.09, -0.49, -3.27, 2.25, 1.58, 7.16, repro,
2006-04-25,1.61, -1.70, 0.00, 2.25, 1.59, 7.18, repro,
2006-04-26,1.91, -1.64, 0.05, 2.24, 1.57, 7.15, repro,
2006-04-27,0.00, -0.05, -1.92, 2.30, 1.59, 7.23, repro,
2006-04-28,0.57, -1.85, -5.46, 2.24, 1.54, 7.05, repro,
2006-04-29,0.79, -2.39, -2.38, 2.22, 1.54, 7.04, repro,
2006-04-30,0.99, -2.76, -4.12, 2.22, 1.54, 7.06, repro,
2006-05-01,0.67, -2.41, -1.96, 2.22, 1.54, 7.02, repro,
2006-05-02,1.46, -3.12, -8.51, 2.20, 1.53, 7.00, repro,
2006-05-03,0.81, -2.58, -2.65, 2.19, 1.54, 6.99, repro,
2006-05-04,0.60, -2.30, -5.14, 2.20, 1.53, 6.97, repro,
2006-05-05,1.41, -1.67, -1.45, 2.23, 1.53, 7.03, repro,
2006-05-06,0.69, -2.96, 2.54, 2.20, 1.54, 7.01, repro,
2006-05-07,1.39, -1.03, 7.07, 2.22, 1.54, 7.02, repro,
2006-05-08,1.65, -1.59, 2.92, 2.20, 1.55, 7.05, repro,
2006-05-09,1.15, -1.94, -1.04, 2.27, 1.56, 7.10, repro,
2006-05-10,1.38, -0.88, -5.48, 2.22, 1.53, 7.03, repro,
2006-05-11,0.76, -1.64, 0.22, 2.21, 1.53, 7.01, repro,
2006-05-12,1.37, -1.87, 2.21, 2.21, 1.54, 7.03, repro,
2006-05-13,0.67, -2.03, 0.81, 2.20, 1.54, 7.01, repro,
2006-05-14,0.46, -1.80, -3.98, 2.21, 1.54, 7.05, repro,
2006-05-15,1.57, -0.68, -5.05, 2.20, 1.53, 7.01, repro,
2006-05-16,1.18, -0.52, -1.73, 2.23, 1.56, 7.19, repro,
2006-05-17,1.42, -1.24, -0.50, 2.28, 1.62, 7.37, repro,
2006-05-18,2.05, -2.84, 0.66, 2.24, 1.56, 7.12, repro,
2006-05-19,0.15, -1.95, 9.48, 2.28, 1.56, 7.14, repro,
2006-05-20,-0.98, -1.55, 6.71, 2.28, 1.57, 7.20, repro,
2006-05-21,1.69, -1.28, 5.98, 2.29, 1.55, 7.11, repro,
2006-05-22,0.83, -0.40, 6.49, 2.31, 1.60, 7.33, repro,
2006-05-23,1.63, -2.08, 5.20, 2.31, 1.57, 7.18, repro,
2006-05-24,-0.02, -1.53, 2.50, 2.28, 1.56, 7.12, repro,
2006-05-25,0.82, -1.22, 0.27, 2.35, 1.59, 7.35, repro,
2006-05-26,0.85, -1.29, -0.93, 2.35, 1.60, 7.39, repro,
2006-05-27,2.85, -0.10, 4.84, 2.29, 1.56, 7.16, repro,
2006-05-28,1.04, -0.99, 3.58, 2.28, 1.57, 7.19, repro,
2006-05-29,1.44, -1.75, -2.82, 2.29, 1.57, 7.17, repro,
2006-05-30,2.18, -0.56, -3.51, 2.28, 1.57, 7.19, repro,
2006-05-31,0.50, -0.59, -2.24, 2.27, 1.55, 7.10, repro,
2006-06-01,-0.10, 0.26, -3.12, 2.35, 1.60, 7.34, repro,
2006-06-02,0.19, -0.94, 4.73, 2.40, 1.62, 7.41, repro,
2006-06-03,-2.99, -0.76, -3.56, 2.42, 1.69, 7.69, repro,
2006-06-04,-0.66, -0.40, 4.04, 2.35, 1.60, 7.33, repro,
2006-06-05,0.01, -0.22, -1.35, 2.33, 1.59, 7.27, repro,
2006-06-06,0.38, 0.52, -5.28, 2.34, 1.64, 7.51, repro,
2006-06-07,1.32, -1.06, -8.36, 2.36, 1.60, 7.36, repro,
2006-06-08,2.19, -0.98, 2.05, 2.36, 1.61, 7.36, repro,
2006-06-09,0.10, -0.57, -0.28, 2.29, 1.56, 7.10, repro,
2006-06-10,1.11, -0.76, -0.41, 2.27, 1.55, 7.08, repro,
2006-06-11,0.56, -0.46, 1.09, 2.25, 1.55, 7.05, repro,
2006-06-12,0.15, 0.55, -5.21, 2.30, 1.57, 7.18, repro,
2006-06-13,0.91, -0.58, -1.51, 2.40, 1.66, 7.49, repro,
2006-06-14,0.29, -1.67, 1.84, 2.28, 1.55, 7.07, repro,
2006-06-15,-0.60, -0.35, 2.54, 2.27, 1.55, 7.08, repro,
2006-06-16,-0.67, -1.08, -0.86, 2.31, 1.59, 7.20, repro,
2006-06-17,-1.44, -0.59, 5.94, 2.48, 1.78, 8.00, repro,
2006-06-18,-0.18, -0.44, -2.55, 2.49, 1.73, 7.91, repro,
2006-06-19,-0.44, -1.05, -0.86, 2.31, 1.59, 7.26, repro,
2006-06-20,-0.02, -0.91, -1.55, 2.32, 1.60, 7.33, repro,
2006-06-21,0.16, -1.12, -3.10, 2.30, 1.60, 7.27, repro,
2006-06-22,0.08, -0.86, -5.07, 2.29, 1.59, 7.24, repro,
2006-06-23,2.09, -0.71, -7.84, 2.32, 1.62, 7.35, repro,
2006-06-24,0.08, 0.88, -3.31, 2.31, 1.60, 7.28, repro,
2006-06-25,-0.06, 0.16, -6.63, 2.34, 1.61, 7.34, repro,
2006-06-26,1.25, 0.09, -4.77, 2.36, 1.66, 7.49, repro,
2006-06-27,-1.38, -1.08, 1.46, 2.29, 1.61, 7.24, repro,
2006-06-28,-0.28, -0.09, -2.24, 2.30, 1.61, 7.32, repro,
2006-06-29,0.43, -0.91, 3.25, 2.23, 1.57, 7.15, repro,
2006-06-30,0.47, -0.07, 2.44, 2.27, 1.55, 7.15, repro,
2006-07-01,2.27, 0.00, 3.14, 2.32, 1.61, 7.36, repro,
2006-07-02,1.35, 0.61, 0.08, 2.27, 1.56, 7.21, repro,
2006-07-03,2.52, 0.57, -2.92, 2.25, 1.56, 7.17, repro,
2006-07-04,2.02, -0.37, -1.32, 2.29, 1.61, 7.43, repro,
2006-07-05,1.57, -2.03, 11.43, 2.35, 1.64, 7.52, repro,
2006-07-06,-0.37, -2.14, -1.25, 2.32, 1.61, 7.42, repro,
2006-07-07,1.30, -0.94, -4.42, 2.26, 1.56, 7.17, repro,
2006-07-08,-0.22, 0.44, -4.56, 2.25, 1.56, 7.20, repro,
2006-07-09,0.59, -0.68, 0.04, 2.24, 1.55, 7.15, repro,
2006-07-10,-1.39, -0.42, 1.32, 2.26, 1.57, 7.25, repro,
2006-07-11,-0.96, 1.00, 10.75, 2.27, 1.56, 7.21, repro,
2006-07-12,0.55, -1.14, 6.85, 2.26, 1.55, 7.15, repro,
2006-07-13,-0.73, -0.96, 0.89, 2.25, 1.55, 7.16, repro,
2006-07-14,0.00, 0.63, 10.68, 2.25, 1.55, 7.19, repro,
2006-07-15,-0.09, -1.01, 1.50, 2.23, 1.55, 7.13, repro,
2006-07-16,-0.31, 0.60, 1.69, 2.27, 1.55, 7.15, repro,
2006-07-17,-1.16, -0.19, 6.22, 2.30, 1.60, 7.34, repro,
2006-07-18,-1.59, -0.55, -0.55, 2.32, 1.65, 7.48, repro,
2006-07-19,-0.05, -0.58, 5.93, 2.18, 1.51, 6.89, repro,
2006-07-20,-0.37, 0.16, 3.54, 2.19, 1.52, 6.92, repro,
2006-07-21,1.17, 0.83, -3.80, 2.20, 1.52, 6.92, repro,
2006-07-22,-0.25, 0.34, 2.21, 2.25, 1.58, 7.10, repro,
2006-07-23,-0.19, -0.43, 2.72, 2.20, 1.53, 6.96, repro,
2006-07-24,-0.34, 0.39, 12.13, 2.22, 1.54, 7.02, repro,
2006-07-25,0.94, -0.13, 8.38, 2.21, 1.53, 6.99, repro,
2006-07-26,-0.56, 0.90, 6.80, 2.19, 1.53, 6.95, repro,
2006-07-27,-0.73, 0.01, 3.26, 2.20, 1.53, 6.96, repro,
2006-07-28,-1.92, -0.58, 13.46, 2.20, 1.53, 6.96, repro,
2006-07-29,0.25, -1.40, 6.34, 2.19, 1.53, 6.95, repro,
2006-07-30,-0.94, -2.02, 8.24, 2.25, 1.59, 7.10, repro,
2006-07-31,0.94, -0.20, 9.08, 2.20, 1.53, 6.96, repro,
2006-08-01,-0.88, -1.00, 3.65, 2.19, 1.52, 6.93, repro,
2006-08-02,0.64, -1.15, -0.46, 2.22, 1.57, 7.15, repro,
2006-08-03,-0.20, 0.81, 6.99, 2.21, 1.56, 7.08, repro,
2006-08-04,0.67, -0.12, 10.82, 2.29, 1.59, 7.25, repro,
2006-08-05,-0.98, 0.29, 7.41, 2.29, 1.62, 7.32, repro,
2006-08-06,1.40, -0.22, 6.83, 2.24, 1.57, 7.15, repro,
2006-08-07,1.82, -0.72, 9.68, 2.23, 1.58, 7.18, repro,
2006-08-08,-0.90, -2.00, 9.08, 2.19, 1.53, 6.97, repro,
2006-08-09,-0.65, -1.78, 7.48, 2.24, 1.59, 7.08, repro,
2006-08-10,0.85, -1.19, 9.93, 2.20, 1.53, 7.01, repro,
2006-08-11,-0.50, -0.08, 5.87, 2.23, 1.57, 7.03, repro,
2006-08-12,-1.83, 1.10, 8.03, 2.21, 1.53, 7.00, repro,
2006-08-13,-0.66, -0.90, 4.28, 2.20, 1.53, 6.97, repro,
2006-08-14,-0.12, -1.16, 9.60, 2.24, 1.59, 7.14, repro,
2006-08-15,-1.36, 0.84, 8.37, 2.26, 1.55, 7.03, repro,
2006-08-16,0.33, -0.16, 13.21, 2.18, 1.52, 6.91, repro,
2006-08-17,0.72, 0.01, 5.03, 2.24, 1.58, 7.04, repro,
2006-08-18,1.19, -0.09, 8.13, 2.25, 1.58, 7.12, repro,
2006-08-19,1.53, -0.84, 7.45, 2.21, 1.53, 7.01, repro,
2006-08-20,0.54, -0.57, 9.68, 2.19, 1.54, 6.95, repro,
2006-08-21,0.04, 0.26, 12.64, 2.20, 1.54, 6.96, repro,
2006-08-22,0.02, -0.42, 12.73, 2.21, 1.54, 6.98, repro,
2006-08-23,-0.57, -1.08, 20.71, 2.23, 1.55, 7.03, repro,
2006-08-24,-1.85, -0.78, 15.92, 2.23, 1.56, 7.09, repro,
2006-08-25,-1.08, 0.99, 8.31, 2.25, 1.60, 7.23, repro,
2006-08-26,-1.38, -0.02, 10.75, 2.28, 1.61, 7.28, repro,
2006-08-27,0.15, -0.44, 14.95, 2.28, 1.63, 7.34, repro,
2006-08-28,-0.36, -0.86, 12.10, 2.30, 1.63, 7.40, repro,
2006-08-29,-1.46, -0.35, 10.24, 2.31, 1.64, 7.45, repro,
2006-08-30,-1.75, -1.15, 12.80, 2.37, 1.67, 7.50, repro,
2006-08-31,-0.25, -0.35, 4.01, 2.29, 1.63, 7.35, repro,
2006-09-01,-0.49, -0.74, 6.02, 2.29, 1.63, 7.34, repro,
2006-09-02,-0.60, 0.05, 5.55, 2.29, 1.63, 7.32, repro,
2006-09-03,0.14, 0.13, 11.15, 2.31, 1.64, 7.43, repro,
2006-09-04,0.86, -0.15, 7.63, 2.34, 1.66, 7.51, repro,
2006-09-05,0.73, -1.26, 3.18, 2.35, 1.66, 7.50, repro,
2006-09-06,0.71, -1.42, 5.90, 2.29, 1.64, 7.37, repro,
2006-09-07,-0.20, -1.27, 13.86, 2.33, 1.67, 7.58, repro,
2006-09-08,-0.80, -0.00, 10.91, 2.33, 1.68, 7.62, repro,
2006-09-09,1.08, -1.96, 10.79, 2.28, 1.60, 7.29, repro,
2006-09-10,-0.72, -1.48, 12.05, 2.26, 1.60, 7.23, repro,
2006-09-11,0.35, -1.28, 11.27, 2.26, 1.59, 7.17, repro,
2006-09-12,-0.60, -1.15, 11.69, 2.25, 1.59, 7.11, repro,
2006-09-13,-0.21, -1.75, 16.45, 2.26, 1.60, 7.17, repro,
2006-09-14,-0.04, -0.80, 5.08, 2.37, 1.67, 7.49, repro,
2006-09-15,-0.58, -0.77, 14.38, 2.31, 1.59, 7.26, repro,
2006-09-16,-0.20, -1.44, 10.15, 2.23, 1.55, 7.07, repro,
2006-09-17,0.31, -1.06, 7.37, 2.21, 1.54, 6.97, repro,
2006-09-18,-2.22, -0.97, 17.50, 2.22, 1.55, 7.06, repro,
2006-09-19,-0.50, 0.16, 13.76, 2.22, 1.55, 7.05, repro,
2006-09-20,-1.21, -0.96, 11.54, 2.23, 1.55, 7.07, repro,
2006-09-21,-1.17, -1.87, 14.42, 2.27, 1.61, 7.26, repro,
2006-09-22,-0.41, -1.66, 11.11, 2.57, 1.82, 8.33, repro,
2006-09-23,-0.49, -0.67, 9.63, 2.25, 1.58, 7.11, repro,
2006-09-24,-0.45, -0.85, 8.68, 2.27, 1.58, 7.13, repro,
2006-09-25,-0.58, -0.67, 8.67, 2.23, 1.55, 7.05, repro,
2006-09-26,-0.17, -1.27, 7.26, 2.24, 1.56, 7.10, repro,
2006-09-27,0.22, -0.69, 5.32, 2.24, 1.56, 7.08, repro,
2006-09-28,-0.01, -0.60, 12.81, 2.22, 1.56, 7.02, repro,
2006-09-29,-0.61, -1.19, 15.29, 2.22, 1.58, 7.09, repro,
2006-09-30,-1.08, -0.23, 22.91, 2.27, 1.61, 7.34, repro,
2006-10-01,-0.49, -0.46, 11.21, 2.26, 1.58, 7.20, repro,
2006-10-02,-0.76, 0.15, 7.50, 2.30, 1.63, 7.29, repro,
2006-10-03,-0.03, -0.89, 6.51, 2.31, 1.66, 7.44, repro,
2006-10-04,-0.31, -0.89, 12.06, 2.23, 1.56, 7.06, repro,
2006-10-05,-0.70, -1.07, 12.92, 2.25, 1.57, 7.13, repro,
2006-10-06,-0.66, -0.46, 4.00, 2.25, 1.56, 7.11, repro,
2006-10-07,1.32, -0.70, 4.77, 2.37, 1.65, 7.53, repro,
2006-10-08,0.59, -0.87, 6.37, 2.28, 1.61, 7.22, repro,
2006-10-09,0.25, -0.48, 2.18, 2.27, 1.62, 7.17, repro,
2006-10-10,0.73, -1.22, 2.08, 2.27, 1.60, 7.34, repro,
2006-10-11,-0.69, -0.58, 7.82, 2.28, 1.61, 7.35, repro,
2006-10-12,-0.10, -0.58, 9.00, 2.26, 1.57, 7.12, repro,
2006-10-13,-0.16, 0.18, 12.31, 2.22, 1.56, 7.10, repro,
2006-10-14,0.42, -0.99, 14.64, 2.27, 1.62, 7.38, repro,
2006-10-15,0.14, -1.63, 17.41, 2.22, 1.60, 7.15, repro,
2006-10-16,-0.51, -1.31, 16.39, 2.23, 1.58, 7.26, repro,
2006-10-17,0.47, -0.58, 13.48, 2.38, 1.65, 7.69, repro,
2006-10-18,-0.54, -0.56, 9.41, 2.18, 1.56, 7.02, repro,
2006-10-19,1.65, -0.52, 10.44, 2.50, 1.74, 7.88, repro,
2006-10-20,1.77, -2.01, 6.67, 2.58, 1.83, 8.54, repro,
2006-10-21,-0.74, 0.01, 3.25, 2.44, 1.71, 7.82, repro,
2006-10-22,-0.21, -0.09, 4.98, 2.28, 1.64, 7.48, repro,
2006-10-23,-1.71, -0.34, 4.13, 2.36, 1.72, 7.66, repro,
2006-10-24,-0.79, -0.01, 5.36, 2.42, 1.67, 7.73, repro,
2006-10-25,0.34, -0.48, 8.23, 2.49, 1.74, 7.93, repro,
2006-10-26,-0.03, -0.43, 10.85, 2.25, 1.63, 7.36, repro,
2006-10-27,1.78, -0.29, 4.97, 2.23, 1.61, 7.22, repro,
2006-10-28,-0.53, -0.15, 6.43, 2.29, 1.60, 7.41, repro,
2006-10-29,0.71, -0.90, 8.93, 2.25, 1.61, 7.35, repro,
2006-10-30,-0.66, -0.42, 10.09, 2.17, 1.55, 6.98, repro,
2006-10-31,0.63, -0.40, 6.99, 2.19, 1.58, 7.16, repro,
2006-11-01,0.56, -0.64, 5.11, 2.35, 1.66, 7.66, repro,
2006-11-02,0.20, -0.70, 12.70, 2.25, 1.60, 7.33, repro,
2006-11-03,1.01, -1.41, 2.83, 2.30, 1.69, 7.60, repro,
2006-11-04,0.39, 0.03, 5.71, 2.30, 1.64, 7.38, repro,
2006-11-05,-0.54, -0.47, 11.26, 2.27, 1.62, 7.26, repro,
2006-11-06,-0.57, -0.31, 6.40, 2.18, 1.56, 7.03, repro,
2006-11-07,0.57, 0.23, 10.68, 2.42, 1.72, 7.66, repro,
2006-11-08,0.13, 0.41, 20.25, 2.36, 1.67, 7.56, repro,
2006-11-09,1.01, -0.14, 11.82, 2.39, 1.70, 7.57, repro,
2006-11-10,0.48, -0.03, 2.67, 2.27, 1.59, 7.17, repro,
2006-11-11,-0.06, -1.24, 6.57, 2.31, 1.62, 7.25, repro,